Location: Fontevrault
(47.1823°N, 0.0493°E)
Time: 07:26:43
(UTC+00:00)

Cosmos 2263 Rocket - Pass Details

Date: 27 October 2021
Orbit: 825 x 847 km, 71.0° (Epoch: 06 December)

Event Time Altitude Azimuth Distance (km) Brightness Sun altitude
Rises 17:40:48 0° 326° (NW) 3,372 5.7 -9.0°
Reaches altitude 10° 17:43:25 10° 317° (NW) 2,434 5.1 -9.5°
Maximum altitude 17:48:24 34° 254° (WSW) 1,323 4.1 -10.3°
Drops below altitude 10° 17:53:21 10° 191° (S) 2,423 4.8 -11.2°
Sets 17:55:57 0° 182° (S) 3,354 5.4 -11.6°
